CZ-6A DEB, 56680

Orbit data source: Space-Track

CZ-6A DEB, 56680 is space debris in SSO originally from a launch on Fri, 11 Nov 2022 UTC launched from the Taiyaun Space Center, China (TSC). Debris objects in space refer to the collection of defunct objects orbiting the Earth. Examples of debris include non-operational satellites, rocket bodies, and fragments generated from explosions, collisions, or faulty payload assembly.

Loading next visibility...
Identifier
56680, 2022-151AHG
Orbit
SSO
Country
Flag of CNCN / PRC
Related business
Manufacturer
SAST
Mission
Spacecraft
Bus & Motor
Unknown
Mass
Unknown
Launch date (UTC)
2022-11-11 (3 years ago)
Launch vehicle
Unknown
Launch site
Taiyaun Space Center, China (TSC)
Object type
Payload
Rocket body
Debris
Shape & HBR
Unknown shape, 0.1 m
Radar Cross Section
Small (<0.1 m²)

Expand to show TLE details & history
Last TLE update: 13 hours ago

TLE from 13 hours ago
0 CZ-6A DEB
1 56680U 22151AHG 25349.87924535  .00006571  00000-0  12880-2 0  9992
2 56680  98.6331  38.2349 0086247 140.6417 220.1092 14.60746610144141
Epoch: 2025-12-15T21:06Z
TLE epoch observation values (Epoch: 2025-12-15T21:06:06.798Z)
Latitude
-0.00007°
Longitude
-3.06489°
Altitude
740.592 km
Speed
7.46 km/s
True Right ascension
02h 32m 56s
True Declination
0° 00' 00"
Sunlit
Object was in full shadow at epoch
Visualization orbit readout
Latitude
Unknown
Longitude
Unknown
Altitude
Unknown
Speed
Unknown
Apparent Right ascension
Unknown
Apparent Declination
Unknown
Sunlit
N/A
Visualization observer readout
Local Sidereal Time
08:20:25
Azimuth
Unknown
Elevation
Unknown
Doppler factor
Unknown
Orbital elements
Apogee altitude
748.807 km
Perigee altitude
626.922 km
Semi-major axis
7,066.002 km
Eccentricity
0.00862
Inclination
98.6331°
RAAN
38.2349°
Arg. of periapsis
140.6417°
True anomaly
219.4777°
Mean anomaly
220.1092°
Eccentric anomaly
219.79293°
Mean motion
3.65412 °/min
Orbital period
98.52 mins
BSTAR
0.001288
Loading maneuver chart data...
Computing Atmospheric mass density...
Loading historical data...
Loading historical data...
Loading historical data...
Loading historical data...
Loading historical data...
Loading historical data...
Loading historical data...

Documentation

Showing up to 5 results
|